Dati Storici

Data ora Umidita' aria (%) Temperatura aria (°C) Rad globale (W/m²) Gonioanemometro (°) Tacoanemometro (m/s) Pioggia (mm)
18-10-2012 21:20 83.4 % 15.01 1.778 296.156 0.459 0
18-10-2012 21:10 82.6 % 14.774 2.188 178.15 0.398 0
18-10-2012 21:00 81.5 % 14.924 2.393 163.934 -0.014 0
18-10-2012 20:50 81.1 % 15.319 1.587 189.589 -0.019 0
18-10-2012 20:40 81.3 % 15.626 1.241 214.055 0.401 0
18-10-2012 20:30 80.6 % 15.692 1.279 209.617 0.62 0
18-10-2012 20:20 80.3 % 15.727 1.51 207.327 0.715 0
18-10-2012 20:10 79.8 % 15.962 1.465 207.72 0.46 0
18-10-2012 20:00 80.8 % 16.089 1.746 192.133 1.073 0
18-10-2012 19:50 82.6 % 15.572 1.195 209.557 0.952 0
18-10-2012 19:40 81.9 % 15.068 1.169 165.587 0.41 0
18-10-2012 19:30 80.1 % 15.177 0.964 166.244 -0.019 0
18-10-2012 19:20 79.9 % 15.384 1.156 112.379 0.236 0
18-10-2012 19:10 79.1 % 15.54 1.285 105.736 0.291 0
18-10-2012 19:00 77.4 % 15.658 0.99 120.028 0.078 0
18-10-2012 18:50 75.8 % 16.2 0.733 142.112 0.225 0
18-10-2012 18:40 75.5 % 16.511 0.939 198.798 0.266 0
18-10-2012 18:30 74.4 % 16.614 1.605 141.023 0.509 0
18-10-2012 18:20 73.2 % 16.939 4.348 137.716 0.376 0
18-10-2012 18:10 71.7 % 17.167 11.282 85.64 0.584 0

I dati sono presentati in modo automatico a scopo informativo. In seguito a verifica i dati possono subire modifiche o essere invalidati e non riportati negli archivi definitivi.